Regional Weather Roundup
Issued by NWS

Home | Current Version | Previous Version | Text Only | Print | Product List | Glossary On
Versions: 1 2 3 4 5 6 7 8 9 10 11 12 13 14 15 16 17 18 19 20 21 22 23 24 25 26 27 28 29 30 31 32 33 34 35 36 37 38 39 40 41 42 43 44 45 46 47 48 49 50
000
ASUS43 KLMK 290410
RWRKY
KENTUCKY REGIONAL WEATHER ROUNDUP
NATIONAL WEATHER SERVICE LOUISVILLE KY
1200 AM EDT WED MAR 29 2017

NOTE "FAIR" INDICATES FEW OR NO CLOUDS BELOW 12,000 FEET
WITH NO SIGNIFICANT WEATHER AND/OR OBSTRUCTIONS TO VISIBILITY.

KYZ001>023-026-027-061>063-070>075-290500-
WESTERN AND SOUTH CENTRAL KENTUCKY

CITY           SKY/WX    TMP DP  RH WIND       PRES   REMARKS
PADUCAH        CLOUDY    56  50  80 NE6       30.05F
HENDERSON      CLOUDY    55  48  76 NE6       30.08S
OWENSBORO        N/A    N/A N/A N/A MISG        N/A
HOPKINSVILLE   CLEAR     52  52 100 N5        30.06S FOG
BOWLING GREEN  CLOUDY    56  54  93 CALM      30.07S
GLASGOW        PTCLDY    57  57 100 NE7       30.07F
$$

KYZ024-025-028>034-038-045-046-053-290500-
NORTH CENTRAL KENTUCKY

CITY           SKY/WX    TMP DP  RH WIND       PRES   REMARKS
LOUISVILLE/SDF PTCLDY    57  46  66 NE8       30.11S
LOUISVILLE/LOU CLOUDY    56  48  74 N5        30.11F
FORT KNOX      PTCLDY    55  49  80 NE7       30.09R
$$

KYZ035>037-039>044-047>052-055>060-089>105-290500-
NORTHEAST KENTUCKY

CITY           SKY/WX    TMP DP  RH WIND       PRES   REMARKS
LEXINGTON      CLEAR     52  48  86 NE8       30.11S
COVINGTON      CLOUDY    53  48  83 N8        30.14R
FRANKFORT      PTCLDY    54  48  80 NE5       30.10S
$$

KYZ054-064>069-076>088-106>120-290500-
SOUTHEAST KENTUCKY

CITY           SKY/WX    TMP DP  RH WIND       PRES   REMARKS
JACKSON        CLOUDY    57  53  86 VRB3      30.09S
LONDON         PTCLDY    54  50  86 CALM      30.09R
SOMERSET       CLOUDY    55  52  88 NE5       30.10S
MIDDLESBORO    MOCLDY    56  52  86 CALM      30.09R
MONTICELLO     CLOUDY    58  54  86 W7        30.10S
$$




USA.gov is the U.S. government's official web portal to all federal, state and local government web resources and services.